Tracking 19920 objects as of 14-Oct-2019
HD Live streaming from Space Station
objects crossing your sky now

VANGUARD 2

Track VANGUARD 2 now!
10-day predictions
VANGUARD 2 is classified as:


NORAD ID: 11
Int'l Code: 1959-001A
Perigee: 561.3 km
Apogee: 2,944.8 km
Inclination: 32.9 °
Period: 121.5 minutes
Semi major axis: 8124 km
RCS: 0.3823 m2 (medium)
Launch date: February 17, 1959
Source: United States (US)
Launch site: AIR FORCE EASTERN TEST RANGE (AFETR)
aabbcc
Your satellite tracking list
Your tracking list is empty




NASA's NSSDC Master Catalog

Two Line Element Set (TLE):
1    11U 59001A   19286.94663319 +.00000154 +00000-0 +66434-4 0  9991
2    11 032.8761 264.6316 1466975 294.2489 051.1851 11.85613690245591
Source of the keplerian elements: AFSPC